Location: Belmont
(13.0833°N, 59.6000°W)
Time: 05:15:34
(UTC+00:00)

Lacrosse 4 Rocket - Pass Details

Date: 17 September 2019
Orbit: 544 x 615 km, 68.0° (Epoch: 23 October)

Event Time Altitude Azimuth Distance (km) Brightness Sun altitude
Rises 22:38:47 0° 350° (N) 2,694 5.0 -10.7°
Reaches altitude 10° 22:41:02 10° 356° (N) 1,803 4.1 -11.2°
Maximum altitude 22:44:54 45° 70° (ENE) 747 1.6 -12.2°
Drops below altitude 10° 22:48:48 10° 143° (SE) 1,821 3.6 -13.1°
Enters shadow 22:48:57 - 144° (SE) 1,884 3.7 -13.2°
